EW3791 Weather Reports


Display with metric or nautical units.
time (UTC)temp
F
wind
direction
speed
MPH
gust
MPH
rain 1hr
in
rain 24hr
in
rain mn
in
humidity
%
barometer
mb
20260505194517 82 180 8.0 14.0 0.00 0.00 0.00 79 1007.8
20260505193057 82 215 7.0 17.0 0.00 0.00 0.00 80 1007.9
20260505191533 82 189 5.0 12.0 0.00 0.00 0.00 81 1008.1
20260505190112 81 139 6.0 14.0 0.00 0.00 0.00 82 1008.2
20260505184538 80 196 6.0 15.0 0.00 0.00 0.00 82 1008.3
20260505183005 80 153 5.0 9.0 0.00 0.00 0.00 82 1008.3
20260505181539 80 215 4.0 13.0 0.00 0.00 0.00 83 1008.5
20260505180013 80 216 7.0 14.0 0.00 0.00 0.00 83 1008.7
20260505174551 79 177 6.0 12.0 0.00 0.00 0.00 84 1008.7
20260505173006 79 192 4.0 11.0 0.00 0.00 0.00 84 1008.9
20260505171551 79 142 5.0 13.0 0.00 0.00 0.00 84 1008.9
20260505170024 79 181 6.0 13.0 0.00 0.00 0.00 84 1009.0
20260505164558 79 215 6.0 16.0 0.00 0.00 0.00 84 1009.0
20260505163032 78 234 5.0 13.0 0.00 0.00 0.00 85 1009.0
20260505161505 78 174 6.0 14.0 0.00 0.00 0.00 85 1008.9
20260505153105 78 165 6.0 15.0 0.00 0.00 0.00 85 1008.7
20260505151536 77 124 3.0 12.0 0.00 0.00 0.00 86 1008.6
20260505124528 74 169 4.0 10.0 0.00 0.00 0.00 90 1008.3
20260505123109 73 217 3.0 9.0 0.00 0.00 0.00 90 1008.3
20260505121540 73 150 5.0 12.0 0.00 0.00 0.00 90 1007.9
20260505120015 73 126 6.0 12.0 0.00 0.00 0.00 90 1007.8
20260505114545 73 181 3.0 9.0 0.00 0.00 0.00 90 1008.3
20260505113015 73 196 4.0 10.0 0.00 0.00 0.00 90 1007.9
20260505111552 73 181 4.0 10.0 0.00 0.00 0.00 89 1007.9
20260505101611 73 158 5.0 10.0 0.00 0.00 0.00 89 1008.0
20260505100056 73 182 4.0 11.0 0.00 0.00 0.00 89 1008.1
20260505094508 72 155 4.0 11.0 0.00 0.00 0.00 89 1007.9
20260505093101 72 171 4.0 12.0 0.00 0.00 0.00 89 1008.1
20260505091520 72 189 3.0 11.0 0.00 0.00 0.00 89 1008.2
20260505090108 72 186 3.0 9.0 0.00 0.00 0.00 89 1008.3
20260505084530 72 193 3.0 7.0 0.00 0.00 0.00 89 1008.3
20260505083112 72 195 5.0 11.0 0.00 0.00 0.00 89 1008.3
20260505081538 72 157 4.0 13.0 0.00 0.00 0.00 88 1008.6
20260505080008 72 219 5.0 14.0 0.00 0.00 0.00 88 1008.6
20260505074553 71 153 6.0 12.0 0.00 0.00 0.00 88 1008.7
20260505073033 71 209 4.0 11.0 0.00 0.00 0.00 88 1008.8
20260505071603 71 129 4.0 11.0 0.00 0.00 0.00 87 1008.9
20260505070041 72 169 2.0 9.0 0.00 0.00 0.00 87 1008.9
20260505064511 71 180 6.0 14.0 0.00 0.00 0.00 87 1009.2
20260505063050 71 207 6.0 12.0 0.00 0.00 0.00 86 1009.6
20260505061522 71 195 5.0 12.0 0.00 0.00 0.00 86 1009.9
20260505060056 72 168 3.0 9.0 0.00 0.00 0.00 85 1009.8
20260505054522 72 201 3.0 14.0 0.00 0.00 0.00 85 1009.9
20260505053109 71 186 4.0 9.0 0.00 0.00 0.00 85 1010.1
20260505051541 72 165 5.0 13.0 0.00 0.00 0.00 84 1010.0
20260505041607 72 187 4.0 10.0 0.00 0.00 0.00 82 1010.1
20260505040040 73 141 7.0 14.0 0.00 0.00 0.00 82 1010.5
20260505034513 73 170 5.0 15.0 0.00 0.00 0.00 81 1010.6
20260505033104 73 196 8.0 21.0 0.00 0.00 0.00 80 1010.6
20260505031538 73 271 6.0 17.0 0.00 0.00 0.00 80 1010.5
20260505030004 74 136 5.0 20.0 0.00 0.00 0.00 79 1010.5
20260505024544 73 162 5.0 11.0 0.00 0.00 0.00 79 1010.4
20260505023018 73 150 7.0 15.0 0.00 0.00 0.00 79 1010.4
20260505021556 73 165 6.0 13.0 0.00 0.00 0.00 79 1010.4
20260505020029 74 165 6.0 12.0 0.00 0.00 0.00 78 1010.3
20260505014609 74 123 8.0 19.0 0.00 0.00 0.00 78 1010.2
20260505013033 74 176 5.0 13.0 0.00 0.00 0.00 77 1010.0
20260505011515 75 122 9.0 16.0 0.00 0.00 0.00 76 1010.1
20260505010110 75 148 6.0 14.0 0.00 0.00 0.00 76 1009.9
20260505004523 75 188 4.0 10.0 0.00 0.00 0.00 75 1009.7
20260505003107 76 210 8.0 15.0 0.00 0.00 0.00 75 1009.7
20260505001536 76 189 5.0 15.0 0.00 0.00 0.00 74 1009.9
20260505000012 77 147 4.0 14.0 0.00 0.00 0.00 73 1009.7
20260504234551 77 190 5.0 11.0 0.00 0.00 0.00 73 1010.0
20260504233025 77 171 4.0 11.0 0.00 0.00 0.00 72 1010.1
20260504231603 77 194 7.0 14.0 0.00 0.00 0.00 72 1010.2
20260504230041 77 139 7.0 21.0 0.00 0.00 0.00 72 1010.3
20260504224506 77 169 8.0 17.0 0.00 0.00 0.00 71 1010.5
20260504223100 77 153 7.0 23.0 0.00 0.00 0.00 71 1010.5
20260504221538 78 110 5.0 13.0 0.00 0.00 0.00 69 1010.7
20260504220106 78 197 8.0 16.0 0.00 0.00 0.00 68 1010.8
20260504214533 79 172 5.0 14.0 0.00 0.00 0.00 67 1010.8
20260504213005 79 148 6.0 13.0 0.00 0.00 0.00 65 1011.0
20260504211549 80 127 4.0 12.0 0.00 0.00 0.00 64 1011.3
20260504210020 80 159 6.0 12.0 0.00 0.00 0.00 63 1011.3
20260504204600 80 193 5.0 15.0 0.00 0.00 0.00 62 1011.5
20260504203035 80 160 5.0 18.0 0.00 0.00 0.00 62 1011.8
20260504201603 80 176 6.0 15.0 0.00 0.00 0.00 62 1012.0
20260504200033 80 127 4.0 11.0 0.00 0.00 0.00 62 1012.3